Flag for Portugal Weather past 2 weeks in Funchal, Madeira, Portugal

Now
59 °F

Broken clouds.


Feels Like: 57 °F
Forecast: N/A
Wind: 10 mph from North

Location: Aeroporto Da Madeira

Current Time: Mar 3, 2015 at 7:30:09 PM

Latest Report: Mar 3, 2015 at 6:30 PM


Visibility: N/A

Pressure: 30.33 "Hg

Humidity: 68%

Dew point: 48 °F

Location of FunchalLocation

Historic Weather in Funchal — Graph

°F

Funchal temperature yesterday

Maximum temperature yesterday: 63 °F (at 3:30 PM)
Minimum temperature yesterday: 55 °F (at 6:30 AM)
Average temperature yesterday: 59 °F

Past Weeks' High & Low Weather Summary

 TemperatureHumidityPressure
High64 °F (Feb 20, 2:30 PM)88% (Feb 21, 12:30 PM)30.60 "Hg (Feb 21, 12:30 PM)
Low55 °F (Feb 17, 11:00 PM)37% (Feb 20, 2:30 PM)30.21 "Hg (Feb 21, 2:30 PM)
Average58 °F68%30.40 "Hg
* Reported Feb 16 6:00 PM — Mar 3 6:00 PM, Funchal, Weather by CustomWeather, © 2015

Note: Actual official high and low records may vary slightly from our data, if they occured in-between our weather recording intervals... More about our weather records

Advertising

Funchal weather history for previous 24 hours

 ConditionsComfort  
Time TempWeatherWind HumidityBarometerVisibility
6:00 PM
Tue, Mar 3
59 °FBroken clouds.12 mph68%30.33 "HgN/A
5:30 PM59 °FBroken clouds.10 mph68%30.33 "HgN/A
5:00 PM59 °FBroken clouds.10 mph63%30.33 "HgN/A
4:30 PM61 °FBroken clouds.10 mph59%30.33 "HgN/A
4:00 PM61 °FBroken clouds.10 mph59%30.33 "HgN/A
3:30 PM61 °FBroken clouds.10 mph59%30.33 "HgN/A
3:00 PM61 °FBroken clouds.10 mph59%30.33 "HgN/A
2:30 PM61 °FBroken clouds.10 mph59%30.33 "HgN/A
2:00 PM61 °FBroken clouds.9 mph59%30.33 "HgN/A
1:30 PM61 °FBroken clouds.10 mph63%30.36 "HgN/A
1:00 PM61 °FBroken clouds.9 mph63%30.36 "HgN/A
12:30 PM61 °FBroken clouds.9 mph59%30.36 "HgN/A
12:00 PM61 °FBroken clouds.9 mph59%30.36 "HgN/A
11:30 AM61 °FBroken clouds.12 mph59%30.36 "HgN/A
11:00 AM61 °FBroken clouds.12 mph59%30.36 "HgN/A
10:00 AM59 °FBroken clouds.13 mph63%30.36 "HgN/A
9:30 AM59 °FBroken clouds.12 mph63%30.33 "HgN/A
9:00 AM59 °FBroken clouds.10 mph63%30.33 "HgN/A
8:30 AM59 °FPartly cloudy.10 mph59%30.33 "HgN/A
8:00 AM59 °FPartly cloudy.9 mph59%30.30 "HgN/A
7:30 AM59 °FPassing clouds.7 mph55%30.30 "HgN/A
7:00 AM59 °FPassing clouds.9 mph59%30.30 "HgN/A
6:30 AM59 °FPassing clouds.8 mph59%30.30 "HgN/A
6:00 AM59 °FPassing clouds.8 mph63%30.30 "HgN/A
5:30 AM59 °FPassing clouds.8 mph63%30.30 "HgN/A
5:00 AM59 °FPassing clouds.10 mph63%30.30 "HgN/A
4:30 AM59 °FPassing clouds.10 mph68%30.30 "HgN/A
4:00 AM59 °FPassing clouds.9 mph68%30.30 "HgN/A
3:30 AM59 °FPassing clouds.7 mph68%30.30 "HgN/A
2:30 AM59 °FPassing clouds.9 mph63%30.33 "HgN/A
2:00 AM59 °FPartly cloudy.9 mph59%30.33 "HgN/A
1:30 AM59 °FPartly cloudy.10 mph59%30.33 "HgN/A
1:00 AM59 °FPartly cloudy.12 mph59%30.33 "HgN/A
12:30 AM59 °FPartly cloudy.7 mph59%30.33 "HgN/A
12:00 AM59 °FPassing clouds.6 mph59%30.33 "HgN/A
11:30 PM
Mon, Mar 2
59 °FPassing clouds.9 mph59%30.33 "HgN/A
11:00 PM59 °FPassing clouds.7 mph59%30.36 "HgN/A
10:30 PM59 °FPassing clouds.8 mph59%30.36 "HgN/A
10:00 PM59 °FPassing clouds.6 mph59%30.36 "HgN/A
9:30 PM59 °FPassing clouds.10 mph59%30.36 "HgN/A
9:00 PM59 °FPassing clouds.7 mph63%30.36 "HgN/A
8:30 PM59 °FPassing clouds.6 mph63%30.33 "HgN/A
8:00 PM59 °FPartly sunny.7 mph63%30.33 "HgN/A
7:30 PM59 °FPartly sunny.8 mph63%30.30 "HgN/A
7:00 PM59 °FPartly sunny.6 mph63%30.33 "HgN/A
Weather by CustomWeather, © 2015

See weather overviewHow to use our weather pages